Regional Weather Roundup
Issued by NWS

Home | Current Version | Previous Version | Text Only | Print | Product List | Glossary On
Versions: 1 2 3 4 5 6 7 8 9 10 11 12 13 14 15 16 17 18 19 20 21 22 23 24 25 26 27 28 29 30 31 32 33 34 35 36 37 38 39 40 41 42 43 44 45 46 47 48 49 50
734
ASUS43 KOAX 190702
RWRNE

WEATHER ROUNDUP FOR NEBRASKA
NATIONAL WEATHER SERVICE OMAHA NE
200 AM CDT SAT AUG 19 2017

NOTES: SATELLITE DATA IS BEING USED TO AUGMENT CLOUD COVER ABOVE
       12000 FEET.
       "FAIR" INDICATES FEW OR NO CLOUDS BELOW 12,000 FEET WITH NO
       SIGNIFICANT WEATHER AND/OR OBSTRUCTIONS TO VISIBILITY.


NEZ001>004-019>022-054>056-190800-
NEBRASKA PANHANDLE

CITY           SKY/WX    TMP DP  RH WIND       PRES   REMARKS
SCOTTSBLUFF    CLEAR     62  51  67 E9        30.03F
ALLIANCE       CLEAR     60  50  69 SE6       30.03F
CHADRON        CLEAR     63  48  58 S5        29.97F
GORDON         FAIR      57  52  83 CALM      30.03F
KIMBALL        CLEAR     64  50  60 S9        30.11F
SIDNEY         CLEAR     60  49  66 S10       30.09F
$$

NEZ057>060-069>072-079>082-190800-
SOUTHWEST NEBRASKA

CITY           SKY/WX    TMP DP  RH WIND       PRES   REMARKS
NORTH PLATTE   CLEAR     61  58  90 E6        30.04S
IMPERIAL       CLEAR     66  56  70 SW8       30.05S
LEXINGTON      CLEAR     62  59  88 CALM      30.03S
MCCOOK         CLEAR     66  58  75 SW9       30.02S
OGALLALA       CLEAR     66  54  64 CALM      30.04S
$$

NEZ005>010-023>029-035>040-094-190800-
NORTH CENTRAL NEBRASKA

CITY           SKY/WX    TMP DP  RH WIND       PRES   REMARKS
VALENTINE      CLEAR     64  54  69 SE6       30.02S
AINSWORTH      CLEAR     59  57  91 S7        30.04R
BROKEN BOW     CLEAR     62  57  83 SE3       30.03S
O`NEILL        CLEAR     60  60  99 S3        30.01F
ORD            CLEAR     59  56  89 CALM      30.01F
THEDFORD       CLEAR     63  57  81 SE3       30.05S
$$

NEZ041-046>049-061>064-073>077-083>087-190800-
SOUTH CENTRAL NEBRASKA

CITY           SKY/WX    TMP DP  RH WIND       PRES   REMARKS
GRAND ISLAND   CLEAR     64  62  93 NE6       30.01F
AURORA         CLEAR     63  62  96 N6        30.00F
HASTINGS       CLEAR     67  60  78 NE5       30.02S
HEBRON         CLEAR     64  63  95 CALM      29.98S
HOLDREGE       CLEAR     60  57  88 NE8       30.02S
KEARNEY        CLEAR     65  61  87 CALM      30.02F
YORK           CLEAR     64  64 100 N5        30.00S
$$

NEZ011>018-030>034-042>045-190800-
NORTHEAST NEBRASKA

CITY           SKY/WX    TMP DP  RH WIND       PRES   REMARKS
NORFOLK        CLEAR     58  56  93 SW6       29.98S
ALBION         CLEAR     60  59  96 CALM      30.01F
BLAIR          CLEAR     67  60  78 N10       29.96S
COLUMBUS       CLEAR     64  59  83 CALM      29.99F
FREMONT        CLEAR     63  61  91 NW6       29.97F
TEKAMAH        CLEAR     61  59  93 W6        29.94F
WAYNE          CLEAR     56  54  91 S3        29.97S
$$

NEZ050>053-065>068-078-088>093-190800-
SOUTHEAST NEBRASKA

CITY           SKY/WX    TMP DP  RH WIND       PRES   REMARKS
LINCOLN        CLEAR     67  65  93 N3        29.97S
OMAHA EPPLEY   PTCLDY    66  61  84 N7        29.94S
BEATRICE       CLEAR     63  61  94 CALM      29.97R
FALLS CITY     CLEAR     65  64  97 CALM      29.93F
NEBRASKA CITY  CLEAR     69  68  99 NW6       29.95F
PLATTSMOUTH    CLEAR     68  64  86 W7        29.96R
$$

NEZ044-045-051>053-067-190800-
OMAHA AREA

CITY           SKY/WX    TMP DP  RH WIND       PRES   REMARKS
OMAHA EPPLEY   PTCLDY    66  61  84 N7        29.94S
BLAIR          CLEAR     67  60  78 N10       29.96S
FREMONT        CLEAR     63  61  91 NW6       29.97F
MILLARD        CLEAR     73  62  68 NW8       29.95S
OFFUTT AFB     CLEAR     69  60  72 N3        29.93S
PLATTSMOUTH    CLEAR     68  64  86 W7        29.96R
WAHOO          FAIR      65  62  91 N8        29.96F
$$




USA.gov is the U.S. government's official web portal to all federal, state and local government web resources and services.